Regional Weather Roundup
Issued by NWS

Home | Current Version | Previous Version | Graphics & Text | Print | Product List | Glossary Off
Versions: 1 2 3 4 5 6 7 8 9 10 11 12 13 14 15 16 17 18 19 20 21 22 23 24 25 26 27 28 29 30 31 32 33 34 35 36 37 38 39 40 41 42 43 44 45 46 47 48 49 50

000
ASUS43 KMPX 270210
RWRMN
WEATHER ROUNDUP FOR MINNESOTA
NATIONAL WEATHER SERVICE TWIN CITIES/CHANHASSEN MN
800 PM CST WED NOV 26 2014


NOTE: "FAIR" INDICATES FEW OR NO CLOUDS BELOW 12,000 FEET WITH NO
SIGNIFICANT WEATHER AND/OR OBSTRUCTIONS TO VISIBILITY. N/A MEANS
CURRENT SKY AND/OR WEATHER CONDITIONS ARE NOT AVAILABLE.

MNZ060>063-068>070-270300-
   Twin Cities Metro

CITY           SKY/WX    TMP DP  RH WIND       PRES   REMARKS
TWIN CITIES    CLOUDY    21  12  68 N8        30.31R WCI  11
ST PAUL        CLOUDY    21  12  68 NW14      30.33R WCI   8
CRYSTAL        CLOUDY    21  11  65 NW10      30.31R WCI  10
BLAINE         MOCLDY    21  12  68 N13G20    30.31R WCI   9
LAKEVILLE      CLOUDY    19  16  86 NW14      30.30R WCI   6
EDEN PRAIRIE   CLOUDY    20  11  68 N13       30.30R WCI   7
SOUTH ST PAUL  CLOUDY    23  13  68 N13       30.31R WCI  11
LAKE ELMO      CLOUDY    23  14  68 N10G16    30.31R WCI  12
$$
MNZ001>005-007-008-013>017-022>024-027-028-270300-
   Northwest Minnesota

CITY           SKY/WX    TMP DP  RH WIND       PRES   REMARKS
BEMIDJI        CLEAR     -8 -13  79 NW6       30.41R WCI -21
HALLOCK        PTCLDY    -9 -15  77 NW5       30.53S WCI -21
ROSEAU         PTCLDY    -8 -15  71 NW3       30.48S
WARROAD        PTCLDY    -8 -13  77 NW3       30.46S
THIEF RVR FALL CLEAR     -6 -11  77 N9        30.48R WCI -22
CROOKSTON      CLEAR     -6 -11  77 N8        30.53S WCI -21
FOSSTON        CLEAR     -9 -15  77 NW8       30.46R WCI -26
DETROIT LAKES  FLURRIES  -4  -8  84 NW8       30.44S WCI -19
MOORHEAD       CLEAR     -6  -8  92 N6        30.52R WCI -18
PARK RAPIDS    CLEAR     -6 -11  79 NW8       30.40R WCI -21
MAHNOMEN       FAIR      -7 -11  81 N8        30.46R WCI -22
$$
MNZ006-009>011-018-025>026-270300-
   North Central Minnesota

CITY           SKY/WX    TMP DP  RH WIND       PRES   REMARKS
BAUDETTE       PTCLDY    -9 -13  83 NW5       30.43R WCI -20
FLAG ISLAND    CLEAR     -8 -11  84 NW9       30.45R WCI -25
INTL FALLS     CLEAR     -5 -10  79 NW6       30.40R WCI -18
WASKISH        CLEAR     -2  -8  78 CALM      30.44R
BIG FORK       CLEAR     -2  -9  71 NW3       30.39R
LONGVILLE      FAIR       1  -6  71 N3        30.38S
GRAND RAPIDS   CLEAR      1  -6  71 NW13      30.34R WCI -16
CRANE LAKE     CLEAR      0  -6  78 N7        30.40R WCI -13
ORR            CLEAR     -4  -9  77 CALM      30.33S
COOK           CLEAR     -2  -8  78 NW3       30.35S
WALKER         FAIR      -3 -10  74 NW3       30.39S
$$
MNZ012-019>021-037-270300-
   Northeast Minnesota

CITY           SKY/WX    TMP DP  RH WIND       PRES   REMARKS
DULUTH         CLEAR      6  -4  63 N9        30.29R WCI  -8
ELY            CLEAR      0  -6  78 N6        30.31S WCI -12
HIBBING        FAIR       2  -7  66 N12       30.34R WCI -15
EVELETH        CLEAR      3  -6  66 N9        30.33S WCI -11
DULUTH HARBOR  PTCLDY    12   1  62 N18G25    30.38R WCI  -5
TWO HARBORS    CLEAR      9   0  66 N6        30.30R WCI  -1
SILVER BAY     PTCLDY     9  -2  61 NW3       30.30R
GRAND MARAIS     N/A      8  -2  63 N13G29    30.30R WCI  -8
G MARAIS ARPRT PTCLDY     0  -8  71 NW13G18   30.21F WCI -18
$$
MNZ029>031-032-039>041-046>048-054>057-064-270300-
   West Central Minnesota

CITY           SKY/WX    TMP DP  RH WIND       PRES   REMARKS
FERGUS FALLS   CLEAR     -2  -9  71 N13G18    30.50R WCI -21
WHEATON        CLEAR     -2  -6  84 NW9       30.51S WCI -18
MORRIS         PTCLDY     0  -6  78 NW17      30.44R WCI -21
ALEXANDRIA     CLEAR      2  -6  69 N13       30.39R WCI -15
ELBOW LAKE     FAIR      -1  -5  82 NW10      30.44R WCI -18
WADENA         CLEAR      0  -8  71 NW9       30.40R WCI -16
GLENWOOD       CLEAR      3  -6  66 N12       30.39R WCI -13
APPLETON       PTCLDY     3  -2  78 N21       30.46R WCI -18
BENSON         PTCLDY     1  -4  78 N13G18    30.43R WCI -16
ORTONVILLE     PTCLDY     1  -6  71 NW14G20   30.47R WCI -17
MADISON        PTCLDY     9   1  72 NW20      30.47R WCI -11
WILLMAR        CLOUDY    10   1  67 NW16      30.39R WCI  -7
$$
MNZ033>034-036-042>043-049>051-058-059-270300-
   Central Minnesota

CITY           SKY/WX    TMP DP  RH WIND       PRES   REMARKS
ST CLOUD       CLOUDY    15   0  51 N15       30.35R WCI   0
SAUK CENTRE    FAIR       6  -4  66 NW15      30.38R WCI -12
PAYNESVILLE    CLOUDY     9   1  71 W10G17    30.37R WCI  -5
AITKIN         CLEAR      7  -6  56 NW6       30.35R WCI  -3
PINE RIVER     CLEAR      3  -4  72 NW7       30.40S WCI  -9
BRAINERD       CLEAR      4  -5  66 N16       30.38R WCI -15
STAPLES        CLEAR      1  -8  66 NW12      30.39R WCI -15
LONG PRAIRIE   FAIR       5  -4  66 NW12      30.38R WCI -11
LITTLE FALLS   PTCLDY    10  -8  44 N6        30.38R WCI   1
LITCHFIELD     CLOUDY    16  10  79 NW12G20   30.36R WCI   3
BUFFALO        CLOUDY    18   7  62 NW10G17   30.35R WCI   6
MAPLE LAKE     CLOUDY    18  10  70 N12       30.35R WCI   5
$$
MNZ037-044-045-052-053-270300-
   East Central Minnesota

CITY           SKY/WX    TMP DP  RH WIND       PRES   REMARKS
PRINCETON      CLOUDY    16   5  62 NW10      30.34R WCI   3
MORA           MOCLDY    14   3  62 N8        30.35R WCI   3
CAMBRIDGE      CLOUDY    19   7  58 NW9       30.32R WCI   9
RUSH CITY      CLOUDY    17   5  60 N14G21    30.33R WCI   3
MOOSE LAKE     PTCLDY    10  -2  56 N8        30.32R WCI  -1
HINCKLEY       CLOUDY    14   3  62 N8        30.33R WCI   3
CLOQUET        CLEAR      7  -6  56 NW9       30.31R WCI  -7
MCGREGOR       CLEAR      9  -2  61 NW12      30.34S WCI  -6
$$
MNZ071>073-080-081-089-090-097-098-270300-
   Southwest Minnesota

CITY           SKY/WX    TMP DP  RH WIND       PRES   REMARKS
MONTEVIDEO     CLOUDY     5   0  78 N20G25    30.44R WCI -15
GRANITE FALLS  CLOUDY     7   1  75 NW17      30.44R WCI -11
CANBY          CLOUDY     7  -1  71 NW16      30.46R WCI -11
MARSHALL       CLOUDY     7  -2  66 N22       30.41R WCI -14
REDWOOD FALLS  LGT SNOW   9   4  80 NW14G23   30.39R WCI  -7
OLIVIA         MOCLDY    10   5  79 NW17G25   30.38R WCI  -7
PIPESTONE      CLOUDY    10   1  67 N9G17     30.36R WCI  -2
WINDOM         CLOUDY     9   5  85 NW16      30.35S WCI  -9
WORTHINGTON    CLOUDY    10   3  72 N17       30.36R WCI  -7
JACKSON        CLOUDY    12   7  79 NW17      30.35R WCI  -5
TRACY          CLOUDY     9   2  75 NW20G26   30.40R WCI -11
SLAYTON        CLOUDY     8   1  73 NW13G22   30.37R WCI  -8
$$
MNZ065>067-074>077-082>085-091>093-270300-
   South Central Minnesota

CITY           SKY/WX    TMP DP  RH WIND       PRES   REMARKS
MANKATO        CLOUDY    16   9  73 NW14      30.33R WCI   1
NEW ULM        CLOUDY    12   9  85 NW14      30.36R WCI  -3
ST JAMES       CLOUDY    12   9  85 NW15G24   30.37R WCI  -4
FAIRMONT       CLOUDY    12   7  79 NW18      30.34R WCI  -5
GLENCOE        CLOUDY    20  14  76 NW10      30.33R WCI   9
FARIBAULT      CLOUDY    21  16  79 NW10      30.30R WCI  10
OWATONNA       MOCLDY    21  16  79 NW13      30.28R WCI   9
WASECA         CLOUDY    21  14  73 W10G16    30.32R WCI  10
ALBERT LEA     CLOUDY    23  19  86 NW8G16    30.27R WCI  14
$$
MNZ078>079-086>088-094>096-270300-
   Southeast Minnesota

CITY           SKY/WX    TMP DP  RH WIND       PRES   REMARKS
ROCHESTER      CLOUDY    23  18  81 NW14      30.24R WCI  11
RED WING       CLOUDY    25  16  68 N5        30.28R WCI  19
STANTON        CLOUDY    24  18  78 NW9       30.28R WCI  14
DODGE CENTER   CLOUDY    21  19  93 NW9       30.25R WCI  11
WINONA         CLOUDY    27  23  86 NW3       30.26S
AUSTIN         CLOUDY    23  19  86 N9        30.26R WCI  13
PRESTON        CLOUDY    23  21  91 N7        30.23S WCI  15
$$
ABBREVIATIONS USED IN REMARKS
   TC - TEMPERATURES IN CELSIUS
  WCI - WIND CHILL INDEX
   HX - HEAT INDEX
  VSB - VISIBILITY
$$


USA.gov is the U.S. government's official web portal to all federal, state and local government web resources and services.